| time (UTC) | temp C | wind direction | speed KPH | gust KPH | rain 1hr cm | rain 24hr cm | rain mn cm | humidity % | barometer mb |
| 20260902071717 | 15 | 197 | 0.0 | 0.0 | 0.00 | 0.94 | 0.00 | 98 | 1020.1 |
| 20260902070215 | 15 | 196 | 0.0 | 0.0 | 0.00 | 0.94 | 0.00 | 98 | 1020.0 |
| 20260902064714 | 16 | 197 | 0.0 | 0.0 | 0.00 | 0.94 | 0.00 | 97 | 1020.1 |
| 20260902063216 | 16 | 196 | 0.0 | 0.0 | 0.00 | 0.94 | 0.00 | 98 | 1020.2 |
| 20260902061715 | 16 | 196 | 0.0 | 0.0 | 0.00 | 0.94 | 0.00 | 98 | 1019.9 |
| 20260902060214 | 16 | 203 | 0.0 | 0.0 | 0.00 | 0.94 | 0.00 | 98 | 1019.6 |
| 20260902055418 | 16 | 203 | 0.0 | 0.0 | 0.00 | 0.94 | 0.00 | 98 | 1019.7 |
| 20260902053210 | 16 | 203 | 0.0 | 0.0 | 0.00 | 0.94 | 0.00 | 98 | 1019.6 |
| 20260902051711 | 16 | 197 | 0.0 | 0.0 | 0.00 | 0.94 | 0.00 | 98 | 1019.5 |
| 20260902050210 | 16 | 197 | 0.0 | 0.0 | 0.00 | 0.94 | 0.00 | 98 | 1019.4 |
| 20260902044708 | 16 | 197 | 0.0 | 0.0 | 0.00 | 0.94 | 0.00 | 98 | 1019.3 |
| 20260902043208 | 16 | 197 | 0.0 | 0.0 | 0.00 | 0.94 | 0.00 | 97 | 1019.2 |
| 20260902041706 | 16 | 197 | 0.0 | 0.0 | 0.00 | 0.94 | 0.00 | 97 | 1019.1 |
| 20260902040205 | 16 | 197 | 0.0 | 0.0 | 0.03 | 0.94 | 0.00 | 97 | 1019.0 |
| 20260902035353 | 16 | 189 | 0.0 | 3.2 | 0.03 | 0.94 | 0.94 | 97 | 1018.9 |
| 20260902033204 | 16 | 198 | 1.6 | 8.0 | 0.03 | 0.94 | 0.94 | 97 | 1018.7 |
| 20260902031701 | 16 | 198 | 0.0 | 0.0 | 0.03 | 0.94 | 0.94 | 98 | 1018.7 |
| 20260902030203 | 16 | 202 | 0.0 | 0.0 | 0.00 | 0.91 | 0.91 | 97 | 1018.8 |
| 20260902024701 | 16 | 202 | 0.0 | 0.0 | 0.00 | 0.91 | 0.91 | 97 | 1018.8 |
| 20260902023857 | 16 | 202 | 0.0 | 0.0 | 0.00 | 0.91 | 0.91 | 97 | 1018.7 |
| 20260902021702 | 16 | 202 | 0.0 | 4.8 | 0.00 | 0.91 | 0.91 | 97 | 1018.6 |
| 20260902020859 | 16 | 202 | 0.0 | 4.8 | 0.03 | 0.91 | 0.91 | 97 | 1018.6 |
| 20260902014659 | 16 | 197 | 0.0 | 6.4 | 0.05 | 0.91 | 0.91 | 97 | 1018.3 |
| 20260902013159 | 17 | 192 | 0.0 | 0.0 | 0.05 | 0.91 | 0.91 | 97 | 1018.4 |
| 20260902011658 | 17 | 190 | 0.0 | 0.0 | 0.08 | 0.91 | 0.91 | 97 | 1018.4 |
| 20260902010851 | 17 | 232 | 0.0 | 0.0 | 0.05 | 0.89 | 0.89 | 97 | 1018.4 |
| 20260902004659 | 17 | 232 | 0.0 | 0.0 | 0.03 | 0.86 | 0.86 | 97 | 1018.5 |
| 20260902003157 | 17 | 232 | 0.0 | 0.0 | 0.03 | 0.86 | 0.86 | 96 | 1018.4 |
| 20260902001653 | 17 | 232 | 0.0 | 0.0 | 0.00 | 0.84 | 0.84 | 97 | 1018.3 |
| 20260902001602 | 17 | 232 | 0.0 | 0.0 | 0.00 | 0.84 | 0.84 | 96 | 1018.1 |
| 20260901233152 | 17 | 232 | 0.0 | 0.0 | 0.00 | 0.84 | 0.84 | 96 | 1017.8 |
| 20260901231650 | 17 | 232 | 0.0 | 0.0 | 0.00 | 0.84 | 0.84 | 96 | 1017.7 |
| 20260901230149 | 17 | 232 | 0.0 | 0.0 | 0.00 | 0.84 | 0.84 | 95 | 1017.8 |
| 20260901224648 | 17 | 232 | 0.0 | 0.0 | 0.00 | 0.84 | 0.84 | 96 | 1017.8 |
| 20260901223146 | 18 | 232 | 0.0 | 0.0 | 0.00 | 0.84 | 0.84 | 95 | 1017.5 |
| 20260901222336 | 18 | 232 | 0.0 | 0.0 | 0.00 | 0.84 | 0.84 | 95 | 1017.5 |
| 20260901220144 | 18 | 232 | 0.0 | 0.0 | 0.00 | 0.84 | 0.84 | 95 | 1017.7 |
| 20260901214644 | 18 | 232 | 0.0 | 0.0 | 0.00 | 0.84 | 0.84 | 95 | 1017.5 |
| 20260901213849 | 18 | 232 | 0.0 | 0.0 | 0.00 | 0.84 | 0.84 | 94 | 1017.4 |
| 20260901211638 | 18 | 232 | 0.0 | 0.0 | 0.00 | 0.84 | 0.84 | 93 | 1017.3 |
| 20260901210136 | 18 | 232 | 0.0 | 0.0 | 0.00 | 0.84 | 0.84 | 94 | 1017.1 |
| 20260901204633 | 18 | 232 | 0.0 | 0.0 | 0.00 | 0.84 | 0.84 | 94 | 1017.2 |
| 20260901203132 | 18 | 232 | 0.0 | 0.0 | 0.00 | 0.84 | 0.84 | 92 | 1017.1 |
| 20260901201629 | 18 | 246 | 0.0 | 0.0 | 0.00 | 0.84 | 0.84 | 90 | 1017.0 |
| 20260901200127 | 18 | 248 | 0.0 | 0.0 | 0.03 | 0.84 | 0.84 | 93 | 1017.1 |
| 20260901194627 | 18 | 248 | 0.0 | 0.0 | 0.03 | 0.84 | 0.84 | 91 | 1017.2 |
| 20260901193128 | 18 | 248 | 0.0 | 0.0 | 0.03 | 0.84 | 0.84 | 90 | 1017.2 |
| 20260901191627 | 18 | 248 | 0.0 | 0.0 | 0.03 | 0.84 | 0.84 | 90 | 1017.1 |
| 20260901190126 | 18 | 248 | 0.0 | 0.0 | 0.00 | 0.81 | 0.81 | 90 | 1017.3 |
| 20260901184626 | 18 | 252 | 0.0 | 0.0 | 0.00 | 0.81 | 0.81 | 89 | 1017.4 |
| 20260901183123 | 17 | 252 | 0.0 | 0.0 | 0.00 | 0.81 | 0.81 | 89 | 1017.3 |
| 20260901181623 | 17 | 252 | 0.0 | 0.0 | 0.00 | 0.81 | 0.81 | 94 | 1017.4 |
| 20260901180816 | 17 | 329 | 0.0 | 0.0 | 0.00 | 0.81 | 0.81 | 95 | 1017.3 |
| 20260901174622 | 17 | 329 | 0.0 | 0.0 | 0.00 | 0.81 | 0.81 | 94 | 1017.3 |
| 20260901173122 | 17 | 329 | 0.0 | 0.0 | 0.00 | 0.81 | 0.81 | 91 | 1017.2 |
| 20260901171623 | 16 | 329 | 0.0 | 0.0 | 0.00 | 0.81 | 0.81 | 95 | 1017.2 |
| 20260901170123 | 16 | 329 | 0.0 | 0.0 | 0.00 | 0.81 | 0.81 | 96 | 1017.2 |
| 20260901165319 | 16 | 329 | 0.0 | 0.0 | 0.00 | 0.81 | 0.81 | 95 | 1017.4 |
| 20260901163819 | 16 | 329 | 0.0 | 0.0 | 0.00 | 0.81 | 0.81 | 96 | 1017.4 |
| 20260901161620 | 16 | 329 | 0.0 | 0.0 | 0.00 | 0.81 | 0.81 | 96 | 1017.3 |
| 20260901160117 | 16 | 329 | 0.0 | 0.0 | 0.00 | 0.81 | 0.81 | 97 | 1017.3 |
| 20260901154616 | 16 | 329 | 0.0 | 0.0 | 0.00 | 0.81 | 0.81 | 97 | 1017.4 |
| 20260901153809 | 16 | 329 | 0.0 | 0.0 | 0.00 | 0.81 | 0.81 | 96 | 1017.8 |
| 20260901152317 | 16 | 329 | 0.0 | 0.0 | 0.00 | 0.81 | 0.81 | 97 | 1018.0 |
| 20260901150118 | 16 | 329 | 0.0 | 0.0 | 0.00 | 0.81 | 0.81 | 98 | 1017.9 |
| 20260901144614 | 15 | 329 | 0.0 | 0.0 | 0.03 | 0.81 | 0.81 | 97 | 1017.8 |
| 20260901143115 | 15 | 329 | 0.0 | 0.0 | 0.03 | 0.81 | 0.81 | 97 | 1017.8 |
| 20260901141612 | 15 | 329 | 0.0 | 0.0 | 0.05 | 0.81 | 0.81 | 97 | 1017.3 |
| 20260901140112 | 15 | 329 | 0.0 | 0.0 | 0.05 | 0.81 | 0.81 | 98 | 1017.1 |
| 20260901135314 | 15 | 329 | 0.0 | 0.0 | 0.05 | 0.79 | 0.79 | 98 | 1017.4 |
| 20260901133111 | 15 | 329 | 0.0 | 0.0 | 0.08 | 0.79 | 0.79 | 97 | 1017.4 |
| 20260901131608 | 15 | 329 | 0.0 | 0.0 | 0.10 | 0.76 | 0.76 | 98 | 1017.9 |
| 20260901130109 | 15 | 329 | 0.0 | 0.0 | 0.18 | 0.76 | 0.76 | 97 | 1017.8 |
| 20260901124606 | 15 | 329 | 0.0 | 0.0 | 0.25 | 0.74 | 0.74 | 97 | 1017.8 |
| 20260901123105 | 14 | 329 | 0.0 | 0.0 | 0.33 | 0.71 | 0.71 | 97 | 1018.0 |
| 20260901121603 | 14 | 329 | 0.0 | 0.0 | 0.38 | 0.66 | 0.66 | 97 | 1017.9 |
| 20260901120059 | 14 | 329 | 0.0 | 0.0 | 0.41 | 0.58 | 0.58 | 97 | 1018.0 |
| 20260901114559 | 14 | 329 | 0.0 | 0.0 | 0.36 | 0.48 | 0.48 | 97 | 1018.1 |
| 20260901113058 | 14 | 329 | 0.0 | 0.0 | 0.30 | 0.38 | 0.38 | 97 | 1017.8 |
| 20260901111601 | 14 | 329 | 0.0 | 0.0 | 0.25 | 0.28 | 0.28 | 97 | 1017.9 |
| 20260901110100 | 14 | 329 | 0.0 | 0.0 | 0.18 | 0.18 | 0.18 | 96 | 1017.8 |
| 20260901104557 | 14 | 329 | 0.0 | 0.0 | 0.13 | 0.13 | 0.13 | 96 | 1017.4 |
| 20260901103057 | 15 | 329 | 0.0 | 0.0 | 0.08 | 0.08 | 0.08 | 96 | 1017.3 |
| 20260901101556 | 14 | 329 | 0.0 | 0.0 | 0.03 | 0.03 | 0.03 | 96 | 1017.2 |
| 20260901100056 | 14 | 329 | 0.0 | 0.0 | 0.00 | 0.00 | 0.00 | 95 | 1016.9 |
| 20260901094557 | 14 | 329 | 0.0 | 0.0 | 0.00 | 0.00 | 0.00 | 95 | 1017.0 |
| 20260901093056 | 14 | 329 | 0.0 | 0.0 | 0.00 | 0.00 | 0.00 | 95 | 1017.2 |
| 20260901091556 | 14 | 329 | 0.0 | 0.0 | 0.00 | 0.00 | 0.00 | 95 | 1016.9 |
| 20260901090056 | 14 | 330 | 0.0 | 0.0 | 0.00 | 0.00 | 0.00 | 95 | 1017.0 |
| 20260901084556 | 14 | 330 | 0.0 | 0.0 | 0.00 | 0.00 | 0.00 | 95 | 1017.0 |
| 20260901083055 | 14 | 330 | 0.0 | 0.0 | 0.00 | 0.00 | 0.00 | 95 | 1016.9 |
| 20260901081555 | 14 | 330 | 0.0 | 0.0 | 0.00 | 0.00 | 0.00 | 95 | 1016.9 |
| 20260901080054 | 14 | 330 | 0.0 | 0.0 | 0.00 | 0.00 | 0.00 | 95 | 1017.1 |
| 20260901074551 | 14 | 330 | 0.0 | 0.0 | 0.00 | 0.00 | 0.00 | 95 | 1017.1 |